Regional Weather Roundup
Issued by NWS

Home | Current Version | Previous Version | Graphics & Text | Print | Product List | Glossary On
Versions: 1 2 3 4 5 6 7 8 9 10 11 12 13 14 15 16 17 18 19 20 21 22 23 24 25 26 27 28 29 30 31 32 33 34 35 36 37 38 39 40 41 42 43 44 45 46 47 48 49 50
000
ASUS43 KTOP 171808
RWRKS

WEATHER ROUNDUP FOR KANSAS
NATIONAL WEATHER SERVICE GOODLAND KS
100 PM CDT WED SEP 17 2014

NOTE:  "FAIR" INDICATES FEW OR NO CLOUDS BELOW 12,000 FEET WITH NO
SIGNIFICANT WEATHER AND/OR OBSTRUCTIONS TO VISIBILITY.

KSZ001>006-013>018-027>032-041>047-171900-
NORTHWEST KANSAS

CITY           SKY/WX    TMP DP  RH WIND       PRES   REMARKS
GOODLAND       SUNNY     84  54  35 SE9       29.98F
6HR MIN TEMP:  49; 6HR MAX TEMP:  85;

HILL CITY      FAIR      76  62  62 E6        29.94F
6HR MIN TEMP:  55; 6HR MAX TEMP:  76;

RUSSELL        FAIR      80  65  59 E5        29.91S
6HR MIN TEMP:  61; 6HR MAX TEMP:  81;

$$

KSZ061>065-074>080-084>089-171900-
SOUTHWEST KANSAS

CITY           SKY/WX    TMP DP  RH WIND       PRES   REMARKS
DODGE CITY     FAIR      86  58  38 SW3       29.94S
6HR MIN TEMP:  61; 6HR MAX TEMP:  87;

ELKHART          N/A     84  61  45 SW8         N/A
GARDEN CITY    FAIR      83  61  47 S5        29.94F
6HR MIN TEMP:  55; 6HR MAX TEMP:  83;

GREAT BEND     FAIR      82  64  54 E5        29.90F
LIBERAL        FAIR      88  61  40 W13       29.97F
PRATT          FAIR      90  57  33 W6        29.91F
$$

KSZ066>073-081>083-090>101-171900-
SOUTHEAST KANSAS

CITY           SKY/WX    TMP DP  RH WIND       PRES   REMARKS
CHANUTE        FAIR      88  70  55 W13       29.89F
6HR MIN TEMP:  69; 6HR MAX TEMP:  88;

COFFEYVILLE    FAIR      87  71  58 SW12      29.88F
6HR MIN TEMP:  70; 6HR MAX TEMP:  87;

HUTCHINSON     FAIR      87  65  47 CALM      29.89F
6HR MIN TEMP:  68; 6HR MAX TEMP:  87;

MEDICINE LODGE   N/A     90  63  40 SW8       29.88F
NEWTON         FAIR      86  64  48 W8        29.92F
PARSONS        FAIR      87  72  60 SW12      29.90F
6HR MIN TEMP:  69; 6HR MAX TEMP:  87;

WICHITA INTL   FAIR      92  62  36 SW14      29.88F
6HR MIN TEMP:  67; 6HR MAX TEMP:  92;

WICHITA JABRA  FAIR      89  64  43 SW10      29.88F
6HR MIN TEMP:  68; 6HR MAX TEMP:  90;

WICHITA MCCONL FAIR      91  63  38 S10       29.88F
WINFIELD       FAIR      91  66  43 SW14G22   29.89F
6HR MIN TEMP:  68; 6HR MAX TEMP:  91;

$$

KSZ007>012-019>026-033>040-048>060-102>105-171900-
NORTHEAST KANSAS

CITY           SKY/WX    TMP DP  RH WIND       PRES   REMARKS
CONCORDIA      CLOUDY    74  67  78 E13       29.92F
6HR MIN TEMP:  64; 6HR MAX TEMP:  74;

EMPORIA        PTSUNNY   79  68  69 NE9       29.91F
6HR MIN TEMP:  63; 6HR MAX TEMP:  80;

LAWRENCE       CLOUDY    74  67  78 NE5       29.92F
6HR MIN TEMP:  63; 6HR MAX TEMP:  74;

MANHATTAN      CLOUDY    72  66  81 E10       29.92R
6HR MIN TEMP:  68; 6HR MAX TEMP:  74;

MARYSVILLE     FAIR      73  66  78 E7        29.92F
OLATHE IND     CLOUDY    73  67  81 NE3       29.94S
6HR MIN TEMP:  65; 6HR MAX TEMP:  73;

OLATHE EXE     CLOUDY    71  68  90 E5        29.93S
6HR MIN TEMP:  63; 6HR MAX TEMP:  72;

SALINA         FAIR      82  67  60 E12       29.90F
6HR MIN TEMP:  64; 6HR MAX TEMP:  82;

TOPEKA BILLARD CLOUDY    74  69  85 NE6       29.92F
6HR MIN TEMP:  65; 6HR MAX TEMP:  74;

TOPEKA FORBES  CLOUDY    74  66  76 E6        29.93S
6HR MIN TEMP:  64; 6HR MAX TEMP:  74;

$$


USA.gov is the U.S. government's official web portal to all federal, state and local government web resources and services.